McHenry, MD

5:06 PM EDT on July 24, 2016 (GMT -0400)
Oakland

Weather History for K2G4 - May, 2014

Change the Weather History Date:

Thursday, May 15, 2014

  Actual Average (KMGW) Record (KMGW)
Temperature  
Mean Temperature 53 °F 61 °F  
Max Temperature 62 °F 72 °F 90 °F (1962)
Min Temperature 44 °F 50 °F 35 °F (1984)
Degree Days  
Heating Degree Days 12 6  
Month to date heating degree days 103  
Since 1 July heating degree days 5086  
Cooling Degree Days 0 2  
Month to date cooling degree days 16  
Year to date cooling degree days 32  
Growing Degree Days 3 (Base 50)    
Moisture  
Dew Point 59 °F    
Average Humidity 94    
Maximum Humidity 100    
Minimum Humidity 88    
Precipitation  
Precipitation 0.00 in 0.16 in 1.52 in (2014)
Month to date precipitation 2.15  
Year to date precipitation 14.73  
Sea Level Pressure  
Sea Level Pressure 30.02 in    
Wind  
Wind Speed 16 mph (SSE)    
Max Wind Speed 22 mph    
Max Gust Speed 38 mph    
Visibility 5 miles    
Events Fog    
T = Trace of Precipitation, MM = Missing Value Source: NWS Daily Summary

Daily Weather History Graph

Daily Weather History Graph

Search for Another Location

Airport or City:

Trip Planner

Search our weather history database for the weather conditions in past years. The results will help you decide how hot, cold, wet, or windy it might be!

Date:

Astronomy

May. 15, 2014 Rise Set
Actual Time 6:03 AM EDT 8:24 PM EDT
Civil Twilight 5:32 AM EDT 8:55 PM EDT
Nautical Twilight 4:55 AM EDT 9:32 PM EDT
Astronomical Twilight 4:13 AM EDT 10:14 PM EDT
Moon 9:31 PM EDT (5/15) 6:48 AM EDT (5/15)
Length of Visible Light 15h 22m
Length of Day
14h 21m
Full, 99% of the Moon is Illuminated
May 15
Full
May 21
Last Quarter
May 28
New
Jun 5
First Quarter
Jun 13
Full

Hourly Weather History & Observations

Time (EDT) Temp. Windchill Dew Point Humidity Pressure Visibility Wind Dir Wind Speed Gust Speed Precip Events Conditions
12:10 AM 59.0 °F - - N/A% 30.11 in 0.2 mi SSE 18.4 mph 26.5 mph N/A Fog Fog
12:30 AM 59.0 °F - - N/A% 30.11 in 0.2 mi SE 20.7 mph 28.8 mph N/A Fog Fog
12:50 AM 59.0 °F - - N/A% 30.11 in 0.8 mi SSE 19.6 mph 26.5 mph N/A   Overcast
1:10 AM 59.0 °F - - N/A% 30.11 in 3.0 mi SSE 21.9 mph 28.8 mph N/A   Overcast
1:30 AM 59.0 °F - - N/A% 30.10 in 4.0 mi SSE 20.7 mph 25.3 mph N/A   Haze
1:50 AM 59.0 °F - - N/A% 30.09 in 3.0 mi SE 16.1 mph 21.9 mph N/A   Mostly Cloudy
2:10 AM 59.0 °F - - N/A% 30.08 in 3.0 mi SSE 17.3 mph 24.2 mph N/A   Overcast
2:30 AM 59.0 °F - - N/A% 30.07 in 2.5 mi SE 17.3 mph 21.9 mph N/A   Overcast
2:50 AM 59.0 °F - - N/A% 30.07 in 2.5 mi SE 15.0 mph 24.2 mph N/A   Overcast
3:10 AM 59.0 °F - - N/A% 30.06 in 3.0 mi SE 17.3 mph 21.9 mph N/A   Overcast
3:30 AM 59.0 °F - - N/A% 30.06 in 3.0 mi SE 13.8 mph 23.0 mph N/A   Overcast
3:50 AM 59.0 °F - - N/A% 30.06 in 4.0 mi SE 15.0 mph 23.0 mph N/A   Haze
4:10 AM 59.0 °F - - N/A% 30.05 in 4.0 mi SE 15.0 mph - N/A   Haze
4:30 AM 59.0 °F - - N/A% 30.04 in 4.0 mi SSE 17.3 mph 25.3 mph N/A   Haze
4:50 AM 59.0 °F - - N/A% 30.04 in 5.0 mi SE 16.1 mph 25.3 mph N/A   Haze
5:10 AM 59.0 °F - - N/A% 30.04 in 5.0 mi SSE 18.4 mph 25.3 mph N/A   Haze
5:30 AM 59.0 °F - - N/A% 30.04 in 7.0 mi SSE 20.7 mph 26.5 mph N/A   Scattered Clouds
5:50 AM 59.0 °F - - N/A% 30.04 in 7.0 mi SSE 17.3 mph 23.0 mph N/A   Clear
6:10 AM 57.2 °F - - N/A% 30.04 in 5.0 mi SE 17.3 mph 25.3 mph N/A   Haze
6:30 AM 59.0 °F - - N/A% 30.03 in 4.0 mi SE 18.4 mph 25.3 mph N/A   Haze
6:50 AM 59.0 °F - - N/A% 30.02 in 5.0 mi SE 19.6 mph 29.9 mph N/A   Haze
7:10 AM 59.0 °F - - N/A% 30.02 in 5.0 mi SE 19.6 mph 33.4 mph N/A   Haze
7:30 AM 59.0 °F - - N/A% 30.02 in 5.0 mi SE 20.7 mph 26.5 mph N/A   Haze
7:50 AM 59.0 °F - - N/A% 30.02 in 7.0 mi SE 18.4 mph 29.9 mph N/A   Mostly Cloudy
8:10 AM 59.0 °F - - N/A% 30.02 in 7.0 mi SE 17.3 mph 27.6 mph N/A   Mostly Cloudy
8:30 AM 59.0 °F - 59.0 °F 100% 30.02 in 10.0 mi SE 21.9 mph 31.1 mph N/A   Overcast
8:50 AM 60.8 °F - 60.8 °F 100% 30.01 in 10.0 mi SE 20.7 mph 29.9 mph N/A   Scattered Clouds
9:10 AM 60.8 °F - 57.2 °F 88% 30.02 in 10.0 mi SE 19.6 mph 26.5 mph N/A   Scattered Clouds
9:35 AM 60.8 °F - 57.2 °F 88% 30.01 in 10.0 mi SSE 18.4 mph 27.6 mph N/A   Mostly Cloudy
9:55 AM 60.8 °F - 59.0 °F 94% 30.01 in 10.0 mi SE 11.5 mph 20.7 mph N/A   Overcast
10:15 AM 60.8 °F - 59.0 °F 94% 30.01 in 10.0 mi SE 13.8 mph 21.9 mph N/A   Overcast
10:35 AM 62.6 °F - 59.0 °F 88% 30.01 in 10.0 mi SSE 15.0 mph 24.2 mph N/A   Mostly Cloudy
10:55 AM 60.8 °F - 59.0 °F 94% 30.02 in 10.0 mi SSE 16.1 mph 27.6 mph N/A   Overcast
11:15 AM 60.8 °F - 59.0 °F 94% 30.03 in 10.0 mi SSE 10.4 mph 21.9 mph N/A   Overcast
11:35 AM 62.6 °F - 59.0 °F 88% 30.03 in 10.0 mi SSE 19.6 mph 25.3 mph N/A   Overcast
11:55 AM 62.6 °F - 59.0 °F 88% 30.03 in 10.0 mi SSE 17.3 mph 24.2 mph N/A   Overcast
12:15 PM 60.8 °F - 60.8 °F 100% 30.05 in 10.0 mi WSW 4.6 mph 9.2 mph N/A   Overcast
12:35 PM 59.0 °F - 59.0 °F 100% 30.04 in 1.0 mi South 8.1 mph - N/A   Overcast
12:55 PM 59.0 °F - - N/A% 30.03 in 4.0 mi SSE 9.2 mph - N/A   Haze
1:15 PM 59.0 °F - - N/A% 30.02 in 5.0 mi South 4.6 mph - N/A   Haze
1:35 PM 59.0 °F - - N/A% 30.01 in 0.5 mi SE 15.0 mph 38.0 mph N/A Fog Fog
1:55 PM 59.0 °F - - N/A% 30.01 in 3.0 mi SSE 15.0 mph - N/A   Overcast
2:15 PM 59.0 °F - - N/A% 30.01 in 5.0 mi SSE 11.5 mph - N/A   Haze
2:55 PM 59.0 °F - - N/A% 29.99 in 4.0 mi ESE 15.0 mph - N/A   Haze
3:15 PM 59.0 °F - - N/A% 29.99 in 3.0 mi SE 12.7 mph - N/A   Overcast
3:35 PM 59.0 °F - - N/A% 29.99 in 3.0 mi SE 12.7 mph - N/A   Overcast
3:55 PM 59.0 °F - - N/A% 29.99 in 2.5 mi ESE 13.8 mph - N/A   Overcast
4:15 PM 59.0 °F - - N/A% 29.98 in 4.0 mi ESE 13.8 mph 19.6 mph N/A   Haze
4:35 PM 59.0 °F - - N/A% 29.96 in 4.0 mi SE 11.5 mph - N/A   Haze
4:55 PM 59.0 °F - - N/A% 29.96 in 5.0 mi ESE 9.2 mph - N/A   Haze
5:15 PM 59.0 °F - - N/A% 29.95 in 4.0 mi SE 12.7 mph 17.3 mph N/A   Haze
5:35 PM 59.0 °F - - N/A% 29.95 in 7.0 mi SE 12.7 mph 20.7 mph N/A   Overcast
5:55 PM 59.0 °F - - N/A% 29.95 in 10.0 mi SE 16.1 mph 21.9 mph N/A   Overcast
6:15 PM 59.0 °F - - N/A% 29.94 in 10.0 mi SE 13.8 mph 18.4 mph N/A   Overcast
6:35 PM 59.0 °F - - N/A% 29.94 in 10.0 mi SE 18.4 mph 23.0 mph N/A   Overcast
6:55 PM 59.0 °F - - N/A% 29.95 in 10.0 mi South 10.4 mph 17.3 mph N/A   Overcast
7:15 PM 53.6 °F - - N/A% 29.95 in 4.0 mi West 9.2 mph - N/A   Haze
7:35 PM 53.6 °F - - N/A% 29.96 in 3.0 mi WSW 11.5 mph - N/A   Overcast
7:55 PM 51.8 °F - - N/A% 29.97 in 1.8 mi WSW 12.7 mph 19.6 mph N/A   Overcast
8:15 PM 51.8 °F - - N/A% 29.98 in 3.0 mi West 8.1 mph 16.1 mph N/A   Overcast
8:35 PM 50.0 °F - - N/A% 29.99 in 3.0 mi West 8.1 mph - N/A   Overcast
8:55 PM 50.0 °F - - N/A% 30.00 in 1.2 mi West 10.4 mph 16.1 mph N/A   Overcast
9:15 PM 48.2 °F - - N/A% 30.01 in 4.0 mi West 8.1 mph - N/A   Haze
9:35 PM 46.4 °F 41.1 °F - N/A% 30.01 in 4.0 mi West 11.5 mph 17.3 mph N/A   Haze
9:55 PM 46.4 °F 43.5 °F - N/A% 30.01 in 4.0 mi West 5.8 mph - N/A   Haze
10:15 PM 46.4 °F 43.5 °F - N/A% 30.01 in 4.0 mi West 5.8 mph - N/A   Haze
10:35 PM 44.6 °F 40.2 °F - N/A% 30.01 in 4.0 mi West 8.1 mph - N/A   Haze
10:55 PM 44.6 °F 39.2 °F - N/A% 30.01 in 4.0 mi West 10.4 mph 17.3 mph N/A   Haze
11:15 PM 44.6 °F 40.7 °F - N/A% 29.99 in 1.8 mi West 6.9 mph - N/A   Mostly Cloudy
11:35 PM 44.6 °F 40.7 °F - N/A% 29.99 in 0.8 mi West 6.9 mph - N/A   Mist
11:55 PM 44.6 °F 40.7 °F - N/A% 29.97 in 2.0 mi West 6.9 mph - N/A   Mist